Weather History for Thunder Bay, ON

Change the Weather History Date:

Thursday, November 8, 2012

  Actual Average Record
Temperature  
Mean Temperature 40 °F -  
Max Temperature 46 °F -12 °F 51 °F (1999)
Min Temperature 33 °F -25 °F 1 °F (2003)
Degree Days  
Heating Degree Days 26    
Moisture  
Dew Point 36 °F    
Average Humidity 87    
Maximum Humidity 100    
Minimum Humidity 66    
Precipitation  
Precipitation 0.00 in 0.01 in - ()
Sea Level Pressure  
Sea Level Pressure 29.98 in    
Wind  
Wind Speed 4 mph ()    
Max Wind Speed 14 mph    
Max Gust Speed 24 mph    
Visibility 15.6 miles    
Events Rain    
Averages and records for this station are not official NWS values.
T = Trace of Precipitation, MM = Missing Value Source: Averaged Metar Reports

Daily Weather History Graph

Daily Weather History Graph

Search for Another Location

Airport:

Trip Planner

Search our weather history database for the weather conditions in past years. The results will help you decide how hot, cold, wet, or windy it might be!

Date:

Astronomy

Nov. 08, 2012 Rise Set
Actual Time 7:54 AM EST 5:26 PM EST
Civil Twilight 7:21 AM EST 6:00 PM EST
Nautical Twilight 6:43 AM EST 6:37 PM EST
Astronomical Twilight 6:07 AM EST 7:14 PM EST
Moon 1:22 AM EST (11/8) 2:32 PM EST (11/8)
Length of Visible Light 10h 38m
Length of Day
9h 31m
Waning Crescent, 33% of the Moon is Illuminated
Nov 8
Waning Crescent
Nov 13
New
Nov 20
First Quarter
Nov 28
Full
Dec 6
Last Quarter

Hourly Weather History & Observations

Time (EST) Temp. Windchill Dew Point Humidity Pressure Visibility Wind Dir Wind Speed Gust Speed Precip Events Conditions
12:00 AM 35.6 °F 32.8 °F 35.6 °F 100% 30.07 in 10.0 mi West 3.5 mph - N/A   Overcast
12:59 AM 35.6 °F - 35.6 °F 100% 30.07 in 10.0 mi Calm Calm - N/A   Overcast
1:00 AM 35.6 °F - 35.6 °F 100% 30.07 in 10.0 mi Calm Calm - N/A   Overcast
2:00 AM 33.8 °F - 33.8 °F 100% 30.07 in 6.0 mi West 2.3 mph - N/A   Overcast
3:00 AM 35.6 °F - 35.6 °F 100% 30.06 in 10.0 mi Calm Calm - N/A   Overcast
4:00 AM 33.8 °F 30.8 °F 33.8 °F 100% 30.06 in 10.0 mi NNW 3.5 mph - N/A   Overcast
5:00 AM 35.6 °F - 35.6 °F 100% 30.06 in 10.0 mi Calm Calm - N/A   Overcast
6:00 AM 35.6 °F - 35.6 °F 100% 30.02 in 10.0 mi Calm Calm - N/A   Overcast
6:23 AM 35.6 °F - 35.6 °F 100% 30.02 in 10.0 mi Calm Calm - N/A Rain Light Rain
7:00 AM 37.4 °F - 37.4 °F 100% 30.01 in 10.0 mi Calm Calm - N/A Rain Light Rain
8:00 AM 39.2 °F 35.0 °F 37.4 °F 93% 29.98 in 20.0 mi South 5.8 mph - N/A Rain Light Rain
8:33 AM 41.0 °F 35.8 °F 37.4 °F 87% 29.99 in 20.0 mi South 8.1 mph - N/A   Overcast
8:42 AM 41.0 °F 35.2 °F 37.4 °F 87% 29.99 in 20.0 mi South 9.2 mph - N/A Rain Light Rain
9:00 AM 41.0 °F 36.4 °F 37.4 °F 87% 29.98 in 20.0 mi South 6.9 mph - N/A   Mostly Cloudy
10:00 AM 41.0 °F 35.2 °F 37.4 °F 87% 29.98 in 20.0 mi SSW 9.2 mph - N/A Rain Light Rain
11:00 AM 42.8 °F 38.0 °F 35.6 °F 76% 29.97 in 20.0 mi SW 8.1 mph - N/A   Mostly Cloudy
12:00 PM 46.4 °F 40.7 °F 35.6 °F 66% 29.94 in 20.0 mi SSW 12.7 mph 24.2 mph N/A   Mostly Cloudy
12:47 PM 42.8 °F 35.8 °F 37.4 °F 81% 29.84 in 20.0 mi SSE 13.8 mph - N/A Rain Light Rain
12:51 PM 42.8 °F 38.0 °F 37.4 °F 81% 29.89 in 20.0 mi SW 8.1 mph 20.7 mph N/A Rain Light Rain
1:00 PM 42.8 °F 37.0 °F 37.4 °F 81% 29.90 in 20.0 mi SSW 10.4 mph - N/A Rain Light Rain
1:46 PM 44.6 °F 38.1 °F 37.4 °F 76% 29.89 in 20.0 mi SW 13.8 mph - N/A   Mostly Cloudy
2:00 PM 44.6 °F 38.4 °F 37.4 °F 76% 29.90 in 20.0 mi SSW 12.7 mph 18.4 mph N/A   Mostly Cloudy
3:00 PM 44.6 °F 39.2 °F 35.6 °F 71% 29.88 in 20.0 mi SW 10.4 mph - N/A   Overcast
4:00 PM 42.8 °F 37.5 °F 35.6 °F 76% 29.91 in 20.0 mi SW 9.2 mph - N/A   Overcast
5:00 PM 42.8 °F 38.6 °F 35.6 °F 76% 29.93 in 20.0 mi WSW 6.9 mph - N/A   Overcast
6:00 PM 42.8 °F 38.0 °F 37.4 °F 81% 29.96 in 15.0 mi WNW 8.1 mph - N/A   Overcast
7:00 PM 42.8 °F 39.3 °F 37.4 °F 81% 29.99 in 15.0 mi West 5.8 mph - N/A   Overcast
8:00 PM 42.8 °F 38.6 °F 37.4 °F 81% 30.00 in 12.0 mi WNW 6.9 mph - N/A   Overcast
9:00 PM 41.0 °F 36.4 °F 37.4 °F 87% 30.02 in 15.0 mi WNW 6.9 mph - N/A   Overcast
10:00 PM 41.0 °F 37.1 °F 37.4 °F 87% 30.04 in 15.0 mi West 5.8 mph - N/A   Overcast